Regional Weather Roundup
Issued by NWS

Home | Current Version | Previous Version | Graphics & Text | Print | Product List | Glossary On
Versions: 1 2 3 4 5 6 7 8 9 10 11 12 13 14 15 16 17 18 19 20 21 22 23 24 25 26 27 28 29 30 31 32 33 34 35 36 37 38 39 40 41 42 43 44 45 46 47 48 49 50
000
ASUS43 KBIS 301210
RWRND

NORTH DAKOTA REGIONAL WEATHER ROUNDUP
NATIONAL WEATHER SERVICE BISMARCK ND
700 AM CDT THU JUL 30 2015

NOTE: "FAIR" INDICATES FEW OR NO CLOUDS BELOW 12,000 FEET WITH NO
SIGNIFICANT WEATHER AND/OR OBSTRUCTIONS TO VISIBILITY.


NDZ001>003-009>011-017-301300-
NORTHWEST NORTH DAKOTA

CITY           SKY/WX    TMP DP  RH WIND       PRES   REMARKS
WILLISTON      CLEAR     53  49  86 CALM      30.14R
6HR MIN TEMP:  51; 6HR MAX TEMP:  62;

MINOT          CLOUDY    60  53  77 SW9       30.07S
MINOT AFB      CLOUDY    59  58  99 W8        30.06S
$$

NDZ018>021-031>035-040>046-301300-
SOUTHWEST NORTH DAKOTA

CITY           SKY/WX    TMP DP  RH WIND       PRES   REMARKS
BISMARCK       CLEAR     57  49  74 NW13      30.14R
6HR MIN TEMP:  54; 6HR MAX TEMP:  60;

DICKINSON      PTCLDY    54  45  71 W8        30.14F
GARRISON         N/A     53  50  89 NW5       30.11F
6HR MIN TEMP:  52; 6HR MAX TEMP:  61;

HETTINGER ARPT CLEAR     49  43  80 NW3       30.20S
$$

NDZ004>008-012>016-024-026-027-054-301300-
NORTHEAST NORTH DAKOTA

CITY           SKY/WX    TMP DP  RH WIND       PRES   REMARKS
GRAND FORKS    MOCLDY    63  56  78 W10       29.98R
GRND FRKS AFB  PTCLDY    63  56  78 NW7       29.99R
DEVILS LAKE    MOCLDY    63  50  63 W15       30.04R
$$

NDZ022-023-025-028>030-036>039-047>053-301300-
SOUTHEAST NORTH DAKOTA

CITY           SKY/WX    TMP DP  RH WIND       PRES   REMARKS
FARGO          CLEAR     61  55  81 MISG      30.02R
6HR MIN TEMP:  59; 6HR MAX TEMP:  66;

JAMESTOWN      CLEAR     60  52  74 W8        30.08R
$$




USA.gov is the U.S. government's official web portal to all federal, state and local government web resources and services.